Clinton-Sherman, OK

4:25 AM CDT on May 25, 2017 (GMT -0500)
Clinton-Sherman

Weather History for KCSM - October, 2013

Change the Weather History Date:

Saturday, October 12, 2013

  Actual Average Record
Temperature  
Mean Temperature 62 °F -  
Max Temperature 73 °F 72 °F 88 °F (1999)
Min Temperature 52 °F 49 °F 43 °F (2006)
Degree Days  
Heating Degree Days 2    
Growing Degree Days 12 (Base 50)    
Moisture  
Dew Point 41 °F    
Average Humidity 49    
Maximum Humidity 74    
Minimum Humidity 30    
Precipitation  
Precipitation 0.00 in - - ()
Sea Level Pressure  
Sea Level Pressure 30.05 in    
Wind  
Wind Speed 13 mph (NNE)    
Max Wind Speed 26 mph    
Max Gust Speed 29 mph    
Visibility 10 miles    
Events      
Averages and records for this station are not official NWS values.
T = Trace of Precipitation, MM = Missing Value Source: NWS Daily Summary

Daily Weather History Graph

Daily Weather History Graph

Search for Another Location

Airport or City:

Trip Planner

Search our weather history database for the weather conditions in past years. The results will help you decide how hot, cold, wet, or windy it might be!

Date:

Astronomy

Oct. 12, 2013 Rise Set
Actual Time 7:40 AM CDT 7:05 PM CDT
Civil Twilight 7:15 AM CDT 7:30 PM CDT
Nautical Twilight 6:45 AM CDT 8:00 PM CDT
Astronomical Twilight 6:16 AM CDT 8:29 PM CDT
Moon 3:03 PM CDT (10/12) 12:59 AM CDT (10/12)
Length of Visible Light 12h 15m
Length of Day
11h 24m
First Quarter, 59% of the Moon is Illuminated
Oct 12
First Quarter
Oct 18
Full
Oct 26
Last Quarter
Nov 3
New
Nov 9
First Quarter

Hourly Weather History & Observations

Time (CDT) Temp. Dew Point Humidity Pressure Visibility Wind Dir Wind Speed Gust Speed Precip Events Conditions
12:53 AM 57.0 °F 34.0 °F 42% 29.86 in 10.0 mi NNW 8.1 mph - N/A   Clear
1:53 AM 57.9 °F 36.0 °F 44% 29.88 in 10.0 mi North 12.7 mph - N/A   Clear
2:53 AM 57.9 °F 39.0 °F 49% 29.90 in 10.0 mi North 12.7 mph - N/A   Clear
3:53 AM 54.0 °F 42.1 °F 64% 29.92 in 10.0 mi North 9.2 mph - N/A   Clear
4:53 AM 52.0 °F 43.0 °F 71% 29.94 in 10.0 mi North 12.7 mph - N/A   Clear
5:53 AM 52.0 °F 44.1 °F 74% 29.97 in 10.0 mi NNE 12.7 mph - N/A   Clear
6:53 AM 53.1 °F 43.0 °F 69% 30.00 in 10.0 mi NNE 13.8 mph - N/A   Clear
7:53 AM 54.0 °F 42.1 °F 64% 30.04 in 10.0 mi NNE 16.1 mph - N/A   Clear
8:53 AM 55.9 °F 42.1 °F 60% 30.07 in 10.0 mi NNE 16.1 mph - N/A   Clear
9:53 AM 61.0 °F 39.9 °F 46% 30.09 in 10.0 mi NNE 20.7 mph 28.8 mph N/A   Clear
10:53 AM 64.9 °F 39.9 °F 40% 30.10 in 10.0 mi NNE 26.5 mph - N/A   Clear
11:53 AM 66.9 °F 39.9 °F 37% 30.11 in 10.0 mi NE 20.7 mph 28.8 mph N/A   Clear
12:53 PM 69.1 °F 39.9 °F 35% 30.11 in 10.0 mi NE 23.0 mph - N/A   Clear
1:53 PM 71.1 °F 39.9 °F 32% 30.09 in 10.0 mi ENE 18.4 mph 26.5 mph N/A   Clear
2:53 PM 72.0 °F 41.0 °F 33% 30.07 in 10.0 mi NE 15.0 mph 25.3 mph N/A   Clear
3:53 PM 73.0 °F 41.0 °F 31% 30.06 in 10.0 mi NNE 18.4 mph 24.2 mph N/A   Clear
4:53 PM 73.9 °F 41.0 °F 30% 30.06 in 10.0 mi NE 17.3 mph 23.0 mph N/A   Clear
5:53 PM 72.0 °F 41.0 °F 33% 30.07 in 10.0 mi NE 16.1 mph - N/A   Clear
6:53 PM 69.1 °F 42.1 °F 38% 30.09 in 10.0 mi NE 10.4 mph - N/A   Clear
7:53 PM 64.0 °F 42.1 °F 45% 30.11 in 10.0 mi NE 8.1 mph - N/A   Clear
8:53 PM 61.0 °F 43.0 °F 52% 30.13 in 10.0 mi ENE 8.1 mph - N/A   Clear
9:53 PM 59.0 °F 44.1 °F 58% 30.15 in 10.0 mi NE 6.9 mph - N/A   Clear
10:53 PM 59.0 °F 45.0 °F 60% 30.17 in 10.0 mi NE 6.9 mph - N/A   Clear
11:53 PM 54.0 °F 45.0 °F 72% 30.18 in 10.0 mi North 6.9 mph - N/A   Clear